• In Netherlands
  • List of Countries
  • For 7 days
  • Water Temperature
  • Satellite Maps
  • Weather Map
  • Weather Widgets
  • user-avatar
    Login

    Hourly Weather Liege

    Today, 24 February, Friday

    Time Temperature Precipitation Wind Pressure Humidity
    00:00 +2°C° 0.3 mm 10 mps 742 mmHg 85%
    01:00 +2°C° 0.3 mm 9 mps 743 mmHg 86%
    02:00 +1°C° 0.3 mm 8 mps 744 mmHg 87%
    03:00 +2°C° 0.3 mm 6 mps 745 mmHg 88%
    04:00 +2°C° 0.2 mm 6 mps 746 mmHg 89%
    05:00 +1°C° 0.2 mm 5 mps 747 mmHg 91%
    06:00 +1°C° 0.2 mm 5 mps 747 mmHg 92%
    07:00 +2°C° 0.1 mm 5 mps 748 mmHg 90%
    08:00 +3°C° 0.1 mm 4 mps 748 mmHg 88%
    09:00 +3°C° 0.1 mm 4 mps 749 mmHg 87%
    10:00 +4°C° 0.2 mm 4 mps 749 mmHg 84%
    11:00 +5°C° 0.2 mm 4 mps 750 mmHg 82%
    12:00 +5°C° 0.2 mm 3 mps 750 mmHg 79%
    13:00 +5°C° 0.3 mm 3 mps 751 mmHg 79%
    14:00 +5°C° 0.3 mm 4 mps 751 mmHg 79%
    15:00 +5°C° 0.3 mm 4 mps 751 mmHg 79%
    16:00 +5°C° 0.1 mm 3 mps 752 mmHg 82%
    17:00 +4°C° 0.1 mm 3 mps 753 mmHg 85%
    18:00 +4°C° 0.1 mm 2 mps 753 mmHg 89%
    19:00 +4°C° 0 mm 2 mps 754 mmHg 90%
    20:00 +4°C° 0 mm 2 mps 754 mmHg 92%
    21:00 +4°C° 0 mm 2 mps 755 mmHg 93%
    22:00 +3°C° 0 mm 2 mps 755 mmHg 93%
    23:00 +3°C° 0 mm 2 mps 756 mmHg 94%

    Tomorrow, 25 February, Saturday

    Time Temperature Precipitation Wind Pressure Humidity
    00:00 +2°C° 0 mm 2 mps 756 mmHg 94%
    01:00 +2°C° 0 mm 2 mps 756 mmHg 94%
    02:00 +2°C° 0 mm 2 mps 756 mmHg 93%
    03:00 +1°C° 0 mm 3 mps 756 mmHg 93%
    04:00 0°C° 0 mm 3 mps 756 mmHg 93%
    05:00 0°C° 0 mm 3 mps 756 mmHg 93%
    06:00 0°C° 0 mm 3 mps 756 mmHg 93%
    07:00 +1°C° 0 mm 3 mps 756 mmHg 90%
    08:00 +1°C° 0 mm 4 mps 756 mmHg 86%
    09:00 +2°C° 0 mm 5 mps 756 mmHg 82%
    10:00 +3°C° 0 mm 5 mps 756 mmHg 79%
    11:00 +4°C° 0 mm 6 mps 756 mmHg 76%
    12:00 +5°C° 0 mm 6 mps 756 mmHg 72%
    13:00 +5°C° 0 mm 6 mps 755 mmHg 73%
    14:00 +5°C° 0 mm 6 mps 755 mmHg 73%
    15:00 +5°C° 0 mm 6 mps 754 mmHg 74%
    16:00 +5°C° 0.1 mm 6 mps 754 mmHg 77%
    17:00 +5°C° 0.1 mm 5 mps 754 mmHg 79%
    18:00 +3°C° 0.1 mm 5 mps 754 mmHg 82%
    19:00 +3°C° 0 mm 6 mps 753 mmHg 81%
    20:00 +3°C° 0 mm 6 mps 753 mmHg 81%
    21:00 +3°C° 0 mm 6 mps 753 mmHg 80%
    22:00 +3°C° 0 mm 6 mps 753 mmHg 80%
    23:00 +3°C° 0 mm 6 mps 753 mmHg 80%

    Day after tomorrow, 26 February, Sunday

    Time Temperature Precipitation Wind Pressure Humidity
    00:00 +3°C° 0 mm 6 mps 752 mmHg 80%
    01:00 +3°C° 0.1 mm 6 mps 752 mmHg 80%
    02:00 +3°C° 0.1 mm 6 mps 752 mmHg 81%
    03:00 +3°C° 0.1 mm 6 mps 751 mmHg 82%
    04:00 +3°C° 0 mm 6 mps 751 mmHg 82%
    05:00 +3°C° 0 mm 6 mps 751 mmHg 83%
    06:00 +3°C° 0 mm 6 mps 751 mmHg 84%
    07:00 +3°C° 0 mm 7 mps 751 mmHg 83%
    08:00 +4°C° 0 mm 7 mps 751 mmHg 82%
    09:00 +4°C° 0 mm 7 mps 751 mmHg 81%
    10:00 +5°C° 0 mm 7 mps 750 mmHg 81%
    11:00 +6°C° 0 mm 7 mps 750 mmHg 81%
    12:00 +8°C° 0 mm 7 mps 750 mmHg 81%
    13:00 +8°C° 0 mm 7 mps 750 mmHg 82%
    14:00 +8°C° 0 mm 7 mps 749 mmHg 83%
    15:00 +8°C° 0 mm 7 mps 749 mmHg 83%
    16:00 +8°C° 0 mm 6 mps 748 mmHg 86%
    17:00 +8°C° 0 mm 6 mps 748 mmHg 88%
    18:00 +7°C° 0 mm 6 mps 748 mmHg 90%
    19:00 +8°C° 0 mm 6 mps 748 mmHg 91%
    20:00 +8°C° 0 mm 7 mps 748 mmHg 91%
    21:00 +8°C° 0 mm 7 mps 748 mmHg 91%
    22:00 +8°C° 0 mm 7 mps 747 mmHg 90%
    23:00 +8°C° 0 mm 7 mps 747 mmHg 90%

    27 February, Monday

    Time Temperature Precipitation Wind Pressure Humidity
    00:00 +8°C° 0 mm 7 mps 746 mmHg 90%
    01:00 +8°C° 0 mm 7 mps 746 mmHg 89%
    02:00 +8°C° 0 mm 7 mps 745 mmHg 88%
    03:00 +7°C° 0 mm 8 mps 744 mmHg 88%
    04:00 +7°C° 0 mm 8 mps 744 mmHg 87%
    05:00 +7°C° 0 mm 8 mps 743 mmHg 87%
    06:00 +7°C° 0 mm 8 mps 743 mmHg 86%
    07:00 +7°C° 0.5 mm 8 mps 742 mmHg 87%
    08:00 +7°C° 0.5 mm 8 mps 742 mmHg 88%
    09:00 +7°C° 0.5 mm 9 mps 741 mmHg 88%
    10:00 +7°C° 1 mm 9 mps 741 mmHg 88%
    11:00 +7°C° 1 mm 9 mps 740 mmHg 88%
    12:00 +7°C° 1 mm 9 mps 739 mmHg 87%
    13:00 +7°C° 0.6 mm 9 mps 738 mmHg 85%
    14:00 +7°C° 0.6 mm 9 mps 737 mmHg 84%
    15:00 +8°C° 0.6 mm 9 mps 737 mmHg 82%
    16:00 +7°C° 0.6 mm 9 mps 736 mmHg 84%
    17:00 +6°C° 0.6 mm 8 mps 736 mmHg 85%
    18:00 +5°C° 0.6 mm 8 mps 736 mmHg 87%
    19:00 +4°C° 0.6 mm 8 mps 736 mmHg 87%
    20:00 +4°C° 0.6 mm 8 mps 736 mmHg 86%
    21:00 +2°C° 0.6 mm 8 mps 736 mmHg 86%
    22:00 +2°C° 0.1 mm 8 mps 736 mmHg 86%
    23:00 +1°C° 0.1 mm 8 mps 737 mmHg 86%

    28 February, Tuesday

    Time Temperature Precipitation Wind Pressure Humidity
    00:00 0°C° 0.1 mm 9 mps 737 mmHg 85%
    01:00 0°C° 0 mm 9 mps 737 mmHg 86%
    02:00 0°C° 0 mm 9 mps 737 mmHg 86%
    03:00 0°C° 0 mm 9 mps 737 mmHg 86%
    04:00 0°C° 0.2 mm 9 mps 736 mmHg 87%
    05:00 0°C° 0.2 mm 9 mps 736 mmHg 87%
    06:00 0°C° 0.2 mm 9 mps 735 mmHg 87%
    07:00 +1°C° 0.2 mm 9 mps 735 mmHg 86%
    08:00 +2°C° 0.2 mm 9 mps 735 mmHg 85%
    09:00 +2°C° 0.2 mm 9 mps 734 mmHg 85%
    10:00 +3°C° 0.2 mm 9 mps 734 mmHg 83%
    11:00 +3°C° 0.2 mm 9 mps 734 mmHg 81%
    12:00 +3°C° 0.2 mm 10 mps 734 mmHg 78%
    13:00 +3°C° 0.3 mm 10 mps 734 mmHg 77%
    14:00 +3°C° 0.3 mm 10 mps 734 mmHg 75%
    15:00 +3°C° 0.3 mm 10 mps 734 mmHg 74%
    16:00 +2°C° 0.1 mm 8 mps 735 mmHg 77%
    17:00 +3°C° 0.1 mm 7 mps 736 mmHg 81%
    18:00 +2°C° 0.1 mm 6 mps 737 mmHg 84%
    19:00 +2°C° 0 mm 6 mps 738 mmHg 85%
    20:00 +2°C° 0 mm 7 mps 739 mmHg 85%
    21:00 +2°C° 0 mm 7 mps 740 mmHg 85%
    22:00 +2°C° 0 mm 7 mps 740 mmHg 86%
    23:00 +1°C° 0 mm 8 mps 741 mmHg 87%

    1 March, Wednesday

    Time Temperature Precipitation Wind Pressure Humidity
    00:00 +1°C° 0 mm 8 mps 741 mmHg 87%
    01:00 +1°C° 0 mm 8 mps 742 mmHg 88%
    02:00 +1°C° 0 mm 8 mps 742 mmHg 89%
    03:00 +1°C° 0 mm 9 mps 742 mmHg 89%
    04:00 +1°C° 0 mm 9 mps 743 mmHg 89%
    05:00 +1°C° 0 mm 9 mps 743 mmHg 90%
    06:00 +1°C° 0 mm 9 mps 744 mmHg 90%
    07:00 +1°C° 0 mm 8 mps 745 mmHg 88%
    08:00 +2°C° 0 mm 8 mps 745 mmHg 87%
    09:00 +4°C° 0 mm 8 mps 746 mmHg 85%
    10:00 +4°C° 0 mm 8 mps 746 mmHg 84%
    11:00 +5°C° 0 mm 7 mps 746 mmHg 82%
    12:00 +6°C° 0 mm 7 mps 746 mmHg 81%
    13:00 +6°C° 0.7 mm 7 mps 746 mmHg 84%
    14:00 +6°C° 0.7 mm 7 mps 745 mmHg 88%
    15:00 +6°C° 0.7 mm 8 mps 745 mmHg 91%
    16:00 +6°C° 0.4 mm 8 mps 745 mmHg 92%
    17:00 +7°C° 0.4 mm 8 mps 745 mmHg 92%
    18:00 +9°C° 0.4 mm 8 mps 745 mmHg 93%
    19:00 +7°C° 0.4 mm 8 mps 746 mmHg 93%
    20:00 +8°C° 0.4 mm 7 mps 746 mmHg 94%
    21:00 +8°C° 0.4 mm 7 mps 747 mmHg 94%
    22:00 +8°C° 0.3 mm 6 mps 747 mmHg 95%
    23:00 +8°C° 0.3 mm 6 mps 747 mmHg 95%
    Show more